Temperature
2 3 3 3 3 3 3 3 2 2 2 2 3 3 3 3 4 4 4 4 4 4 4 4 4 4 4 4 4 4 4 4 4 4 4 3 3 3
2 2 2 2 2 2 2 2 2 2 2 2 2 3 3 3 3 3 3 3 3 3 3 3 3 3 3 3 3 3 3 3 3 3 3 3 3 3
1 1 1 1 1 1 1 1 1 1 1 1 2 2 2 2 2 2 2 2 2 3 3 3 3 3 3 3 3 3 3 3 3 3 3 3 2 2
1 1 1 1 1 1 1 1 1 1 0 1 1 1 1 1 1 1 2 2 2 2 2 2 2 2 2 2 2 2 2 2 2 2 2 2 2 2
-0 0 0 0 0 -0 -0 -0 -0 -0 -0 -0 -0 0 0 0 1 1 1 1 1 1 1 1 1 1 2 2 2 2 2 2 2 2 1 1 1 1
-1 -1 -1 -1 -1 -1 -1 -1 -1 -1 -1 -1 -1 -1 -1 -0 -0 -0 -0 0 -0 0 0 1 1 1 1 1 1 1 1 1 1 1 1 1 1 1
-1 -1 -1 -1 -1 -1 -2 -1 -2 -2 -2 -2 -2 -1 -1 -1 -1 -1 -1 -1 -1 -1 -1 -0 -0 -0 0 0 0 0 0 0 0 0 0 0 -0 -0
-2 -2 -2 -2 -2 -2 -2 -2 -2 -2 -2 -2 -2 -2 -2 -2 -2 -2 -2 -2 -2 -2 -1 -1 -1 -1 -1 -1 -1 -1 -1 -1 -1 -1 -1 -1 -1 -1
-2 -3 -3 -3 -3 -3 -3 -3 -3 -3 -3 -2 -3 -2 -2 -2 -2 -2 -2 -2 -3 -2 -3 -2 -2 -2 -1 -1 -1 -1 -1 -1 -1 -2 -2 -1 -1 -1
-3 -3 -3 -3 -3 -3 -3 -3 -3 -3 -3 -3 -3 -3 -3 -3 -3 -3 -3 -3 -3 -3 -3 -3 -3 -3 -2 -2 -2 -2 -2 -2 -2 -2 -2 -2 -2 -2
-4 -4 -4 -4 -4 -4 -4 -4 -4 -4 -4 -4 -4 -4 -4 -4 -4 -4 -4 -4 -4 -4 -4 -4 -4 -4 -3 -3 -3 -3 -3 -3 -3 -3 -3 -3 -3 -3
-4 -4 -4 -4 -4 -4 -5 -5 -4 -4 -4 -5 -5 -5 -4 -4 -4 -4 -4 -4 -5 -5 -4 -4 -4 -5 -5 -4 -4 -3 -3 -3 -3 -3 -4 -4 -4 -4
-5 -5 -5 -5 -5 -5 -5 -5 -5 -5 -5 -5 -5 -5 -5 -5 -5 -5 -5 -5 -5 -5 -5 -5 -5 -5 -6 -6 -5 -4 -4 -4 -4 -4 -4 -4 -5 -5
-6 -6 -6 -6 -6 -5 -6 -6 -6 -6 -5 -5 -5 -5 -5 -5 -5 -5 -5 -5 -5 -5 -5 -5 -5 -5 -6 -6 -6 -5 -5 -5 -5 -5 -5 -5 -5 -5
-6 -6 -6 -6 -6 -6 -6 -6 -6 -6 -6 -6 -6 -6 -5 -5 -6 -6 -6 -6 -6 -6 -6 -6 -6 -6 -6 -6 -6 -6 -6 -6 -6 -6 -6 -6 -6 -6
-7 -7 -7 -7 -7 -7 -7 -7 -7 -7 -7 -7 -7 -6 -6 -6 -6 -6 -7 -7 -6 -6 -6 -6 -6 -7 -7 -7 -7 -7 -7 -7 -7 -7 -7 -7 -7 -7
-8 -8 -8 -8 -7 -7 -7 -7 -7 -7 -8 -8 -8 -7 -7 -7 -7 -7 -7 -7 -7 -7 -7 -7 -7 -7 -7 -8 -7 -7 -7 -7 -7 -7 -7 -8 -7 -7
-8 -8 -8 -8 -8 -8 -8 -8 -8 -8 -8 -8 -8 -8 -8 -8 -8 -8 -8 -8 -8 -8 -8 -8 -8 -8 -8 -8 -8 -8 -8 -8 -8 -8 -8 -8 -8 -8
-9 -9 -9 -9 -9 -9 -9 -9 -9 -8 -9 -9 -8 -8 -8 -8 -8 -8 -8 -8 -8 -8 -8 -8 -9 -9 -9 -9 -9 -9 -9 -8 -9 -9 -9 -9 -8 -8
-10 -9 -9 -9 -9 -9 -9 -9 -9 -9 -9 -9 -9 -9 -9 -9 -9 -9 -9 -9 -9 -9 -9 -9 -9 -9 -10 -10 -10 -9 -9 -9 -9 -9 -9 -9 -9 -9
-10 -10 -10 -10 -10 -10 -10 -10 -10 -10 -10 -10 -10 -9 -9 -9 -9 -9 -9 -9 -9 -9 -9 -9 -10 -10 -10 -10 -10 -10 -10 -10 -10 -10 -10 -10 -10 -9
-11 -11 -10 -10 -10 -10 -10 -10 -10 -10 -10 -10 -10 -10 -10 -10 -10 -9 -9 -10 -10 -10 -10 -10 -10 -10 -10 -10 -10 -10 -10 -10 -10 -10 -10 -10 -10 -10
-11 -11 -11 -11 -11 -11 -11 -11 -11 -11 -11 -11 -10 -10 -10 -10 -10 -10 -10 -10 -10 -10 -10 -10 -11 -11 -11 -11 -11 -11 -11 -11 -11 -10 -10 -10 -10 -10
Wind_Speed
4 4 3 3 3 3 2 3 4 4 4 3 2 2 4 5 5 5 6 8 8 8 7 7 6 6 6 6 6 6 6 6 7 7 7 7 7 6
4 4 4 3 3 3 3 3 3 4 5 3 2 2 3 4 6 5 6 7 8 8 7 6 6 7 7 7 7 7 7 7 7 8 8 8 8 8
5 5 5 4 4 4 4 3 3 3 5 4 2 2 2 2 3 4 5 6 7 8 8 8 8 8 8 7 8 8 8 8 8 8 9 9 9 9
7 7 7 5 5 5 4 4 4 4 4 5 3 2 3 3 3 2 4 5 6 7 8 9 9 9 8 8 8 9 9 9 9 9 9 9 10 10
8 8 7 7 7 5 5 5 4 4 4 5 5 3 2 2 2 2 2 3 5 7 8 9 9 10 9 9 10 10 10 10 10 10 9 9 9 9
7 7 8 8 8 7 6 6 5 4 4 4 4 3 3 2 2 2 2 2 3 5 6 7 8 10 11 11 11 11 10 10 10 10 10 10 10 10
6 7 7 9 10 8 7 6 6 5 4 5 5 4 4 3 3 2 3 3 3 3 3 4 5 6 8 11 11 11 11 10 10 10 10 10 10 10
7 6 7 8 10 11 11 10 9 8 7 6 6 6 6 4 3 3 3 3 4 2 2 4 5 5 6 8 11 11 11 11 10 10 10 10 10 10
7 6 6 7 8 7 8 10 10 11 10 8 8 8 7 6 5 5 5 5 5 3 2 4 3 5 6 9 11 12 11 11 11 11 11 11 11 11
6 6 7 7 7 7 6 7 7 7 8 7 7 7 7 6 6 6 5 4 3 3 3 4 3 4 5 7 12 12 12 11 11 11 11 11 11 11
5 5 6 6 9 9 7 7 7 6 8 10 10 10 10 10 8 4 4 4 5 4 3 3 3 3 4 5 9 11 11 11 11 12 12 12 11 11
4 4 7 7 8 8 6 6 7 7 5 6 6 7 7 8 10 7 6 6 4 3 3 3 2 1 2 3 4 7 8 11 11 12 12 12 11 8
4 4 4 7 7 8 7 6 8 6 5 5 5 5 4 5 6 6 6 6 6 5 3 2 3 2 3 3 3 4 5 6 7 9 11 12 11 9
4 3 4 6 7 7 6 6 7 5 3 3 4 4 4 4 4 4 4 5 5 5 6 5 4 4 4 5 4 3 3 4 5 5 6 9 10 11
3 5 5 5 5 5 5 5 4 3 3 4 4 4 3 3 3 2 2 3 3 4 6 6 4 4 4 5 4 4 4 4 4 4 4 5 5 5
3 4 4 4 4 3 3 2 2 2 3 4 3 3 2 2 2 2 2 2 2 2 3 5 6 4 4 4 5 5 4 4 3 4 4 4 5 6
2 1 1 1 1 1 1 1 1 2 2 2 2 2 2 2 2 2 2 2 2 3 2 1 1 2 3 4 5 5 5 5 4 3 4 5 5 5
1 1 1 1 2 2 2 2 2 2 2 2 2 3 3 3 3 2 3 3 3 3 3 2 1 2 2 3 5 5 4 4 4 4 3 5 6 5
1 1 1 1 2 2 2 2 2 2 2 2 3 3 3 3 3 3 3 3 4 3 3 2 2 2 3 4 3 4 4 4 4 4 4 4 6 6
1 1 2 2 2 2 2 2 2 2 1 2 2 2 3 3 3 4 4 4 4 3 3 3 3 3 4 4 3 4 6 4 3 4 4 4 5 6
2 2 2 2 2 2 2 2 2 2 2 2 3 3 3 3 3 4 4 5 4 3 4 4 4 4 1 0 2 3 3 5 5 4 4 4 5 4
2 2 2 2 2 2 2 2 3 3 3 3 3 3 3 3 3 4 4 4 4 4 3 2 2 1 1 3 4 4 4 4 5 6 6 6 4 4
2 2 2 2 2 2 3 3 3 3 3 3 3 3 3 3 3 3 3 4 4 3 3 2 1 1 2 2 3 3 3 3 3 4 5 7 7 8
Wind_Direction
215 215 217 225 224 224 216 199 202 237 251 239 226 234 235 240 243 234 234 240 248 251 241 241 242 243 244 247 246 248 246 246 242 240 239 245 256 265
217 216 222 223 222 223 224 227 221 222 245 236 240 240 230 239 243 245 241 240 241 244 242 243 246 249 245 243 245 245 246 247 247 246 243 245 250 258
221 217 224 222 218 219 224 226 229 227 249 266 263 243 220 222 240 238 239 236 240 241 241 245 248 247 246 246 246 246 247 247 246 249 249 246 246 251
220 219 223 223 221 223 220 225 229 220 225 247 260 240 230 219 222 226 234 237 241 248 245 246 247 246 246 244 246 248 249 249 248 250 252 253 249 249
219 222 221 217 223 227 224 225 229 230 221 227 248 249 244 228 227 247 246 235 248 253 253 250 246 245 244 245 246 249 249 249 250 250 251 255 255 253
226 226 223 221 221 220 226 224 223 223 223 227 240 244 236 232 214 229 262 250 259 254 258 259 251 247 245 247 247 249 247 248 248 247 247 249 253 255
228 228 230 231 231 229 231 223 215 219 223 229 234 247 241 215 223 225 255 273 265 237 252 254 250 248 245 247 245 242 244 246 248 250 249 250 252 253
230 230 234 235 235 237 239 236 229 221 221 229 237 235 238 231 232 234 244 259 274 238 239 266 240 244 241 239 242 241 243 246 249 249 249 251 253 255
232 231 240 239 237 230 235 236 239 238 233 230 234 235 238 233 230 235 235 242 257 246 237 267 255 253 248 247 245 242 243 246 251 249 248 251 254 256
238 232 233 233 230 225 224 232 239 242 241 238 233 239 244 239 230 231 233 248 265 248 221 251 250 259 265 248 242 240 240 245 248 250 251 252 254 256
246 242 238 235 240 235 225 228 238 245 250 248 248 250 253 254 248 231 225 235 255 247 223 231 246 272 272 257 237 238 240 245 248 254 256 254 256 259
248 246 249 247 243 239 225 222 233 239 237 244 245 250 251 251 249 235 223 231 248 251 210 204 231 262 275 261 242 242 245 248 252 256 257 255 255 255
246 247 250 251 249 247 242 230 237 241 232 230 234 236 237 238 237 233 228 228 237 245 213 197 224 231 237 268 273 249 236 246 255 257 257 256 254 253
246 249 253 255 255 257 256 248 250 251 232 228 230 233 234 239 240 232 237 240 241 244 222 215 229 230 245 266 271 270 266 255 248 250 252 257 261 261
253 251 257 260 262 258 264 263 252 232 225 229 231 239 237 233 227 230 242 239 248 243 228 226 233 236 240 253 261 270 287 277 247 238 242 246 252 253
266 260 253 257 259 261 268 264 241 228 224 232 242 243 238 225 225 221 233 229 252 279 260 236 224 224 246 253 254 263 262 253 258 257 255 255 249 248
250 262 258 255 237 237 240 242 236 228 240 238 238 240 237 233 238 224 226 223 240 256 284 297 249 239 252 253 255 251 258 265 256 257 264 269 263 252
224 228 243 247 242 245 247 249 248 246 247 244 238 238 236 233 237 233 220 220 239 249 252 257 271 311 314 294 256 243 250 263 267 260 256 266 273 268
187 215 235 247 254 255 254 250 252 254 245 238 238 236 234 234 230 232 230 225 233 241 240 229 222 227 267 284 290 258 260 273 272 271 264 263 267 268
234 237 242 248 249 253 255 260 271 275 257 244 240 239 236 232 231 228 229 230 237 239 239 228 221 225 241 254 273 291 273 257 263 273 283 289 284 276
247 251 253 253 258 255 256 257 257 256 258 251 246 241 237 234 236 234 231 241 242 232 234 242 245 260 263 242 284 290 294 287 275 273 281 291 292 288
257 254 260 260 257 252 252 249 250 250 248 247 249 244 240 236 238 238 232 231 231 230 236 245 242 243 235 243 259 275 297 313 314 307 296 278 269 259
265 265 263 262 261 254 246 249 249 252 250 247 248 244 241 242 239 234 234 231 227 221 216 223 242 264 260 235 248 270 285 305 320 328 322 316 302 285
Height
1495 1496 1497 1499 1501 1502 1503 1504 1505 1504 1504 1506 1507 1508 1510 1510 1511 1512 1512 1513 1513 1513 1513 1514 1515 1516 1517 1518 1519 1519 1520 1520 1520 1521 1521 1521 1522 1522
1490 1491 1493 1494 1495 1496 1498 1499 1500 1501 1500 1500 1501 1503 1504 1505 1506 1506 1507 1507 1508 1508 1508 1509 1510 1511 1512 1513 1513 1514 1514 1515 1515 1515 1515 1516 1517 1517
1485 1486 1487 1489 1490 1491 1492 1493 1495 1496 1495 1494 1496 1498 1498 1499 1500 1501 1501 1502 1502 1503 1503 1504 1505 1506 1506 1507 1507 1508 1509 1509 1510 1510 1510 1510 1511 1511
1479 1481 1482 1483 1484 1486 1487 1488 1489 1490 1491 1489 1490 1492 1493 1494 1494 1494 1495 1496 1497 1498 1498 1498 1499 1500 1500 1501 1502 1502 1503 1504 1504 1504 1504 1505 1505 1505
1473 1474 1476 1477 1478 1479 1480 1482 1483 1484 1485 1485 1484 1486 1487 1488 1489 1489 1490 1491 1491 1492 1492 1492 1493 1494 1494 1495 1496 1496 1497 1497 1498 1498 1498 1499 1499 1499
1467 1468 1469 1471 1472 1473 1474 1476 1477 1478 1479 1479 1479 1480 1481 1482 1483 1483 1484 1485 1485 1486 1486 1486 1487 1488 1488 1489 1489 1490 1491 1491 1491 1491 1492 1492 1493 1493
1460 1461 1463 1464 1466 1467 1468 1469 1471 1472 1472 1473 1473 1474 1475 1476 1477 1478 1478 1479 1479 1480 1480 1480 1481 1481 1482 1482 1483 1483 1484 1484 1485 1485 1485 1486 1486 1486
1453 1455 1456 1458 1459 1461 1462 1463 1465 1465 1466 1467 1467 1468 1469 1470 1472 1472 1472 1472 1472 1474 1474 1474 1475 1474 1475 1476 1476 1477 1478 1478 1478 1478 1479 1479 1479 1479
1447 1448 1450 1451 1453 1454 1455 1457 1458 1459 1460 1461 1461 1461 1463 1464 1466 1466 1467 1467 1467 1468 1469 1467 1468 1468 1469 1469 1470 1471 1471 1472 1472 1472 1472 1472 1472 1472
1441 1442 1443 1445 1446 1448 1449 1450 1451 1452 1453 1454 1455 1455 1457 1459 1460 1460 1461 1461 1462 1463 1464 1462 1461 1461 1462 1463 1464 1465 1465 1465 1465 1465 1465 1465 1465 1465
1435 1436 1438 1439 1440 1442 1443 1443 1444 1446 1447 1448 1449 1450 1451 1452 1454 1455 1455 1455 1455 1456 1457 1457 1455 1455 1455 1456 1457 1458 1458 1458 1459 1459 1458 1458 1458 1458
1429 1430 1432 1433 1435 1436 1437 1437 1438 1439 1441 1442 1443 1444 1445 1447 1448 1449 1449 1450 1449 1449 1450 1451 1450 1450 1448 1448 1450 1451 1451 1451 1452 1452 1452 1452 1452 1451
1423 1425 1426 1428 1429 1430 1431 1432 1432 1434 1435 1436 1437 1438 1439 1440 1442 1443 1443 1444 1444 1443 1444 1445 1445 1445 1445 1442 1443 1444 1444 1444 1444 1444 1445 1445 1445 1445
1418 1420 1421 1422 1424 1425 1425 1426 1427 1428 1429 1430 1431 1432 1433 1434 1436 1436 1437 1438 1438 1439 1439 1440 1439 1439 1439 1437 1436 1436 1437 1437 1437 1437 1438 1438 1438 1438
1414 1415 1416 1418 1418 1419 1420 1421 1422 1423 1424 1425 1425 1426 1428 1429 1430 1431 1431 1432 1432 1433 1433 1434 1434 1434 1434 1432 1431 1430 1430 1430 1431 1431 1431 1431 1430 1430
1410 1411 1412 1413 1414 1415 1416 1416 1417 1418 1419 1420 1421 1422 1423 1424 1425 1425 1426 1426 1426 1427 1428 1428 1428 1429 1428 1427 1427 1425 1425 1424 1424 1424 1424 1424 1423 1423
1406 1407 1408 1408 1409 1410 1411 1412 1413 1414 1415 1416 1416 1417 1418 1419 1420 1420 1421 1421 1421 1421 1421 1422 1423 1423 1423 1422 1421 1420 1420 1419 1419 1419 1418 1416 1416 1417
1403 1403 1403 1404 1405 1406 1407 1408 1409 1410 1411 1411 1412 1412 1413 1414 1415 1415 1416 1416 1416 1416 1416 1416 1417 1416 1416 1416 1417 1415 1415 1414 1414 1413 1412 1411 1409 1410
1399 1399 1400 1401 1402 1403 1403 1404 1405 1406 1407 1407 1407 1408 1409 1409 1410 1410 1411 1411 1411 1412 1412 1412 1412 1412 1411 1409 1409 1411 1410 1409 1408 1407 1407 1406 1404 1403
1395 1396 1396 1397 1398 1399 1400 1400 1401 1402 1402 1403 1403 1404 1404 1405 1405 1406 1406 1406 1406 1407 1407 1407 1408 1408 1407 1406 1404 1404 1406 1405 1404 1402 1401 1400 1399 1398
1392 1393 1393 1394 1395 1395 1396 1397 1397 1398 1398 1399 1399 1400 1400 1401 1401 1401 1402 1402 1402 1402 1402 1402 1403 1404 1403 1403 1401 1399 1400 1401 1400 1399 1397 1395 1393 1392
1389 1389 1390 1391 1391 1392 1393 1393 1394 1394 1395 1395 1395 1395 1396 1396 1397 1397 1397 1398 1398 1398 1398 1398 1399 1399 1399 1398 1396 1395 1394 1394 1394 1394 1394 1393 1391 1388
1386 1386 1387 1387 1388 1389 1389 1389 1390 1390 1390 1390 1391 1391 1392 1392 1393 1393 1393 1393 1393 1394 1394 1394 1394 1395 1395 1394 1393 1392 1391 1390 1389 1388 1388 1388 1387 1386